Tracking 28920 objects as of 26-May-2024
HD Live streaming from Space Station
objects crossing your sky now

STARLINK-31894

Track STARLINK-31894 now!
10-day predictions
STARLINK-31894 is classified as:


NORAD ID: 59665
Int'l Code: 2024-084M
Perigee: 412.4 km
Apogee: 414.5 km
Inclination: 43.0 °
Period: 92.7 minutes
Semi major axis: 6784 km
RCS: Unknown
Launch date: May 6, 2024
Source: United States (US)
Launch site: AIR FORCE EASTERN TEST RANGE (AFETR)
Your satellite tracking list
Your tracking list is empty




NASA's NSSDC Master Catalog

Two Line Element Set (TLE):
1 59665U 24084M   24147.58334491 -.01708299  00000-0 -29249-1 0  9999
2 59665  42.9995 154.7895 0001509 268.9330  57.7847 15.53575452  4303
Source of the keplerian elements: AFSPC